User: anonymous   Login
Location: Oshawa
(43.9000°N, 78.8670°W)
Time: 20:28:10
(UTC-04:00)
Language:

IDEFIX/ARIANE 42P - Orbit

View from above orbital plane
View from above orbital plane
View from above satellite
View from above satellite

Ground track
Ground track

The orbit data is extracted from the following two-line orbital elements,

1 27422U 02021B   17085.90136659 -.00000037 +00000-0 +12084-5 0  9993
2 27422 098.2298 090.7275 0013454 118.0268 242.2278 14.29251634774923
Epoch (UTC): 26 March 2017 21:37:58
Eccentricity: 0.0013454
inclination: 98.2298°
perigee height: 784 km
apogee height: 804 km
right ascension of ascending node: 90.7275°
argument of perigee: 118.0268°
revolutions per day: 14.29251634
mean anomaly at epoch: 242.2278°
orbit number at epoch: 77492

The dashed part of the orbit path shows where the satellite is in the earth's shadow,  

DLR